Flag for Germany Weather past 2 weeks in Wittlich, Rhineland-Palatinate, Germany

Now
59 °F

Broken clouds.


Feels Like: 57 °F
Forecast: 44 / 69 °F
Wind: 13 mph from West

Location: Spangdahlem

Current Time: May 30, 2015 at 3:13:18 PM

Latest Report: May 30, 2015 at 2:58 PM


Visibility: N/A

Pressure: 30.00 "Hg

Humidity: 42%

Dew point: 36 °F

Location of WittlichLocation

Historic Weather in Wittlich — Graph

°F

Wittlich temperature yesterday

Maximum temperature yesterday: 57 °F (at 5:58 PM)
Minimum temperature yesterday: 45 °F (at 4:58 AM)
Average temperature yesterday: 51 °F

Past Weeks' High & Low Weather Summary

 TemperatureHumidityPressure
High69 °F (May 24, 2:58 PM)100% (May 16, 6:58 AM)30.32 "Hg (May 16, 6:58 AM)
Low35 °F (May 21, 5:58 AM)32% (May 21, 4:58 PM)29.66 "Hg (May 18, 11:58 PM)
Average54 °F68%30.05 "Hg
* Reported May 15 1:58 PM — May 30 1:59 PM, Wittlich, Weather by CustomWeather, © 2015

Note: Actual official high and low records may vary slightly from our data, if they occured in-between our weather recording intervals... More about our weather records

Advertising

Wittlich weather history for previous 24 hours

 ConditionsComfort  
Time TempWeatherWind HumidityBarometerVisibility
1:59 PM
Sat, May 30
57 °FMostly cloudy.15 mph48%29.99 "HgN/A
1:58 PM56 °FBroken clouds.15 mph47%29.99 "HgN/A
12:58 PM57 °FScattered clouds.15 mph51%29.95 "HgN/A
11:58 AM57 °FScattered clouds.14 mph51%29.95 "HgN/A
11:03 AM52 °FPartly sunny.13 mph67%29.97 "HgN/A
10:58 AM52 °FBroken clouds.9 mph67%29.94 "HgN/A
9:58 AM52 °FBroken clouds.13 mph72%29.93 "HgN/A
8:59 AM48 °FMostly cloudy.10 mph76%29.95 "HgN/A
8:58 AM48 °FMostly cloudy.10 mph82%29.93 "HgN/A
7:59 AM48 °FPartly sunny.8 mph82%29.93 "HgN/A
6:58 AM46 °FOvercast.6 mph93%29.90 "HgN/A
5:58 AM45 °FPassing clouds.8 mph92%29.88 "HgN/A
10:59 PM
Fri, May 29
54 °FLight rain. Overcast.9 mph67%29.84 "HgN/A
10:58 PM54 °FOvercast.8 mph67%29.81 "HgN/A
9:58 PM54 °FMostly cloudy.9 mph64%29.82 "HgN/A
8:58 PM55 °FMostly cloudy.10 mph61%29.82 "HgN/A
7:58 PM56 °FScattered clouds.16 mph61%29.80 "HgN/A
6:58 PM57 °FOvercast.15 mph62%29.80 "HgN/A
5:58 PM57 °FPassing clouds.15 mph63%29.80 "HgN/A
4:58 PM55 °FMore clouds than sun.14 mph77%29.82 "HgN/A
3:58 PM54 °FOvercast.9 mph82%29.83 "HgN/A
Weather by CustomWeather, © 2015

See weather overviewHow to use our weather pages